Regional Weather Roundup
Issued by NWS

Home | Current Version | Previous Version | Graphics & Text | Print | Product List | Glossary On
Versions: 1 2 3 4 5 6 7 8 9 10 11 12 13 14 15 16 17 18 19 20 21 22 23 24 25 26 27 28 29 30 31 32 33 34 35 36 37 38 39 40 41 42 43 44 45 46 47 48 49 50
000
ASUS43 KOAX 282002
RWRNE

WEATHER ROUNDUP FOR NEBRASKA
NATIONAL WEATHER SERVICE OMAHA NE
200 PM CST WED JAN 28 2015

NOTES: SATELLITE DATA IS BEING USED TO AUGMENT CLOUD COVER ABOVE
       12000 FEET.
       "FAIR" INDICATES FEW OR NO CLOUDS BELOW 12,000 FEET WITH NO
       SIGNIFICANT WEATHER AND/OR OBSTRUCTIONS TO VISIBILITY.

  * THESE STATIONS DO NOT REPORT WEATHER SUCH AS RAIN...SNOW OR FOG.

NEZ001>004-019>022-054>056-282100-
NEBRASKA PANHANDLE

CITY           SKY/WX    TMP DP  RH WIND       PRES   REMARKS
SCOTTSBLUFF      N/A    N/A N/A N/A MISG      30.01R
ALLIANCE       CLOUDY    55  29  36 NW22G35   29.93R
CHADRON        CLOUDY    52  31  44 NW15G22   29.97R
SIDNEY         SUNNY     58  33  39 NW33G45   29.98R
$$

NEZ057>060-069>072-079>082-282100-
SOUTHWEST NEBRASKA

CITY           SKY/WX    TMP DP  RH WIND       PRES   REMARKS
NORTH PLATTE   SUNNY     65  32  29 NW24G33   29.81F
IMPERIAL       SUNNY     64  30  27 NW26G38   29.88S
MCCOOK         SUNNY     69  31  24 NW29G40   29.81F
$$

NEZ005>010-023>029-035>040-094-282100-
NORTH CENTRAL NEBRASKA

CITY           SKY/WX    TMP DP  RH WIND       PRES   REMARKS
VALENTINE      SUNNY     59  29  31 NW28G36   29.79R
BROKEN BOW     SUNNY     67  34  29 NW28      29.74F
ORD            MOSUNNY   65  32  29 NW22      29.69F
$$

NEZ041-046>049-061>064-073>077-083>087-282100-
SOUTH CENTRAL NEBRASKA

CITY           SKY/WX    TMP DP  RH WIND       PRES   REMARKS
GRAND ISLAND   MOSUNNY   66  34  30 NW18G24   29.70F
AURORA         MOSUNNY   64  34  33 NW13G21   29.69F
HASTINGS       MOSUNNY   66  31  27 NW14      29.71F
KEARNEY *      MOSUNNY   66  34  30 NW21G28   29.72F
$$

NEZ011>018-030>034-042>045-282100-
NORTHEAST NEBRASKA

CITY           SKY/WX    TMP DP  RH WIND       PRES   REMARKS
NORFOLK        MOSUNNY   61  36  39 W9        29.65F
ALBION         MOSUNNY   63  33  32 NW14      29.67F
BLAIR          MOSUNNY   53  34  47 S9        29.67F
COLUMBUS *     PTSUNNY   54  36  50 W9        29.70S
TEKAMAH        PTSUNNY   51  36  56 SE10      29.66F
$$

NEZ050>053-065>068-078-088>093-282100-
SOUTHEAST NEBRASKA

CITY           SKY/WX    TMP DP  RH WIND       PRES   REMARKS
LINCOLN        MOSUNNY   59  35  40 S5        29.69F
OMAHA EPPLEY   PTSUNNY   52  35  52 SE13      29.69F
FALLS CITY     PTSUNNY   68  38  33 S18       29.70F
$$

NEZ044-045-051>053-067-282100-
OMAHA AREA

CITY           SKY/WX    TMP DP  RH WIND       PRES   REMARKS
OMAHA EPPLEY   PTSUNNY   52  35  52 SE13      29.69F
BLAIR          MOSUNNY   53  34  47 S9        29.67F
OFFUTT AFB     MOSUNNY   55  35  47 SE7       29.68F
$$



USA.gov is the U.S. government's official web portal to all federal, state and local government web resources and services.